map of LWM home
LWM - Airport
Location
City:  Lawrence, Massachusetts, United States
Name:Lawrence Municipal Airport
ICAO:KLWM
IATA:LWM
FAA LID:LWM

Details
Type:Airport (Airfield)
Use:Public/Civil, International (customs landing rights)
Latitude:4243'02"N (42.717086)
Longitude:7107'25"W (-71.123556)
Datum:WGS 1984
Elevation:147 ft (45 m)
Variation:14.67W (WMM2015 magnetic declination)
0.06 annual change
Runways:2
Longest:5001 × 100 ft (1524 × 30.5 m), paved

Time
Time Zone:UTC-5 (DST-4)
Local Time:

Weather
METAR:KLWM 200354Z AUTO 01005KT 10SM SCT018 OVC025 17/13 A3013 RMK AO2 SLP204 T01670128 $

Related Locations
Nearby:
Farthest:YAUG: 11762 mi / 18930 km
Augusta [Augusta Airport], WA, AU

Find:

   beyond  
but within

Other Information
Maps:
NOTAMs:
Links:
Sources:

  
  • flag of United States
  • flag of Massachusetts
  

Airport Diagram

Airport diagram for LWM

Airport diagram PDF

Sectional Chart

Flight Planning
at skyvector.com

Satellite Image

Google Maps Satellite view

 

Copyright © 2004-2018 Karl L. Swartz. All rights reserved.
The Great Circle Mapper name and logo are trademarks of the Great Circle Mapper.
All other trademarks mentioned herein belong to their respective owners.
Please see credits for attibutions and further copyright information.

  Follow gcmap on Facebook Follow gcmap on Twitter Follow gcmap on Google+ GCmap on LinkedIn

hCard Microformat

Geo Microformat